TimeCDT,TemperatureF,Dew PointF,Humidity,Sea Level PressureIn,VisibilityMPH,Wind Direction,Wind SpeedMPH,Gust SpeedMPH,PrecipitationIn,Events,Conditions,WindDirDegrees,DateUTC
12:56 AM,66.9,61.0,81,30.05,10.0,SSE,13.8,-,N/A,,Clear,160,2013-03-16 05:56:00
1:56 AM,66.9,62.1,84,30.03,10.0,SSE,17.3,-,N/A,,Clear,160,2013-03-16 06:56:00
2:56 AM,66.9,62.1,84,30.00,10.0,South,15.0,-,N/A,,Clear,170,2013-03-16 07:56:00
3:56 AM,66.9,62.1,84,29.97,10.0,SSE,13.8,-,N/A,,Clear,160,2013-03-16 08:56:00
4:56 AM,66.9,63.0,87,29.95,10.0,SSE,15.0,-,N/A,,Clear,160,2013-03-16 09:56:00
5:56 AM,66.9,63.0,87,29.94,10.0,South,16.1,20.7,N/A,,Clear,170,2013-03-16 10:56:00
6:56 AM,66.9,63.0,87,29.94,10.0,SSE,13.8,-,N/A,,Clear,160,2013-03-16 11:56:00
7:56 AM,66.9,63.0,87,29.94,10.0,SSE,12.7,-,N/A,,Clear,160,2013-03-16 12:56:00
8:56 AM,69.1,64.0,84,29.94,10.0,SSE,15.0,-,N/A,,Clear,160,2013-03-16 13:56:00
9:56 AM,73.9,64.0,71,29.95,10.0,SSE,19.6,24.2,N/A,,Clear,160,2013-03-16 14:56:00
10:56 AM,75.9,63.0,64,29.96,10.0,South,20.7,28.8,N/A,,Clear,170,2013-03-16 15:56:00
11:56 AM,75.9,63.0,64,29.96,10.0,SSE,19.6,27.6,N/A,,Mostly Cloudy,160,2013-03-16 16:56:00
12:56 PM,79.0,63.0,58,29.94,10.0,SSE,20.7,33.4,N/A,,Mostly Cloudy,160,2013-03-16 17:56:00
1:56 PM,81.0,62.1,52,29.91,10.0,SSE,24.2,34.5,N/A,,Scattered Clouds,150,2013-03-16 18:56:00
2:56 PM,79.0,63.0,58,29.87,10.0,SSE,25.3,33.4,N/A,,Clear,150,2013-03-16 19:56:00
3:56 PM,77.0,63.0,62,29.85,10.0,SSE,23.0,34.5,N/A,,Clear,160,2013-03-16 20:56:00
4:56 PM,75.9,64.0,67,29.83,10.0,SSE,26.5,34.5,N/A,,Clear,150,2013-03-16 21:56:00
5:56 PM,75.0,64.0,69,29.82,10.0,SSE,24.2,33.4,N/A,,Clear,150,2013-03-16 22:56:00
6:56 PM,72.0,64.0,76,29.82,10.0,SSE,25.3,31.1,N/A,,Clear,150,2013-03-16 23:56:00
7:56 PM,71.1,64.0,78,29.83,10.0,SSE,20.7,29.9,N/A,,Clear,150,2013-03-17 00:56:00
8:56 PM,71.1,64.0,78,29.84,10.0,SSE,20.7,29.9,N/A,,Clear,160,2013-03-17 01:56:00
9:56 PM,71.1,64.0,78,29.85,10.0,SSE,20.7,27.6,N/A,,Scattered Clouds,160,2013-03-17 02:56:00
10:56 PM,71.1,64.0,78,29.86,10.0,SSE,18.4,24.2,N/A,,Clear,160,2013-03-17 03:56:00
11:56 PM,71.1,64.0,78,29.86,10.0,SSE,15.0,-,N/A,,Overcast,160,2013-03-17 04:56:00